• In India
  • List of Countries
  • For 7 days
  • Water Temperature
  • Satellite Maps
  • Weather Map
  • Weather Widgets
  • user-avatar
    Login

    Hourly Weather Korbielow

    Today, 23 June, Saturday

    Time Temperature Precipitation Wind Pressure Humidity
    00:00 +8°C° 0.3 mm 1 mps 706 mmHg 91%
    01:00 +7°C° 0 mm 1 mps 705 mmHg 92%
    02:00 +7°C° 0.1 mm 1 mps 705 mmHg 92%
    03:00 +6°C° 0.1 mm 1 mps 705 mmHg 93%
    04:00 +6°C° 0.1 mm 1 mps 705 mmHg 94%
    05:00 +7°C° 0.1 mm 2 mps 706 mmHg 91%
    06:00 +8°C° 0.1 mm 2 mps 706 mmHg 88%
    07:00 +9°C° 0.1 mm 2 mps 706 mmHg 85%
    08:00 +10°C° 0.4 mm 3 mps 706 mmHg 84%
    09:00 +10°C° 0.4 mm 3 mps 706 mmHg 82%
    10:00 +11°C° 0.4 mm 3 mps 706 mmHg 81%
    11:00 +11°C° 0.5 mm 3 mps 706 mmHg 79%
    12:00 +11°C° 0.5 mm 3 mps 706 mmHg 77%
    13:00 +12°C° 0.5 mm 4 mps 706 mmHg 76%
    14:00 +12°C° 0.4 mm 4 mps 705 mmHg 75%
    15:00 +12°C° 0.4 mm 4 mps 705 mmHg 74%
    16:00 +12°C° 0.4 mm 5 mps 705 mmHg 73%
    17:00 +11°C° 0.1 mm 4 mps 705 mmHg 76%
    18:00 +10°C° 0.1 mm 3 mps 705 mmHg 78%
    19:00 +9°C° 0.1 mm 2 mps 705 mmHg 81%
    20:00 +8°C° 0 mm 2 mps 705 mmHg 84%
    21:00 +8°C° 0 mm 2 mps 705 mmHg 87%
    22:00 +7°C° 0 mm 2 mps 706 mmHg 90%
    23:00 +7°C° 0.1 mm 2 mps 706 mmHg 91%

    Tomorrow, 24 June, Sunday

    Time Temperature Precipitation Wind Pressure Humidity
    00:00 +7°C° 0.1 mm 2 mps 706 mmHg 92%
    01:00 +7°C° 0.1 mm 2 mps 706 mmHg 93%
    02:00 +7°C° 0.2 mm 2 mps 705 mmHg 94%
    03:00 +7°C° 0.2 mm 2 mps 705 mmHg 95%
    04:00 +7°C° 0.2 mm 2 mps 705 mmHg 95%
    05:00 +7°C° 0.6 mm 2 mps 705 mmHg 95%
    06:00 +8°C° 0.6 mm 2 mps 705 mmHg 94%
    07:00 +8°C° 0.6 mm 2 mps 706 mmHg 93%
    08:00 +9°C° 0.2 mm 2 mps 706 mmHg 91%
    09:00 +9°C° 0.2 mm 2 mps 706 mmHg 89%
    10:00 +10°C° 0.2 mm 2 mps 706 mmHg 87%
    11:00 +12°C° 0.3 mm 2 mps 706 mmHg 81%
    12:00 +14°C° 0.3 mm 2 mps 706 mmHg 75%
    13:00 +15°C° 0.3 mm 2 mps 706 mmHg 68%
    14:00 +14°C° 0.3 mm 3 mps 706 mmHg 68%
    15:00 +14°C° 0.3 mm 3 mps 706 mmHg 68%
    16:00 +14°C° 0.3 mm 3 mps 706 mmHg 67%
    17:00 +14°C° 0.2 mm 2 mps 705 mmHg 72%
    18:00 +13°C° 0.2 mm 2 mps 705 mmHg 77%
    19:00 +12°C° 0.2 mm 1 mps 705 mmHg 82%
    20:00 +11°C° 0 mm 1 mps 705 mmHg 85%
    21:00 +10°C° 0 mm 1 mps 705 mmHg 88%
    22:00 +9°C° 0 mm 1 mps 705 mmHg 91%
    23:00 +9°C° 0 mm 1 mps 705 mmHg 92%

    Day after tomorrow, 25 June, Monday

    Time Temperature Precipitation Wind Pressure Humidity
    00:00 +9°C° 0 mm 1 mps 705 mmHg 93%
    01:00 +9°C° 0 mm 1 mps 705 mmHg 95%
    02:00 +9°C° 0.1 mm 1 mps 705 mmHg 95%
    03:00 +9°C° 0.1 mm 1 mps 705 mmHg 96%
    04:00 +9°C° 0.1 mm 1 mps 705 mmHg 96%
    05:00 +10°C° 0.1 mm 1 mps 706 mmHg 93%
    06:00 +11°C° 0.1 mm 1 mps 706 mmHg 89%
    07:00 +12°C° 0.1 mm 1 mps 707 mmHg 86%
    08:00 +13°C° 0.3 mm 2 mps 707 mmHg 84%
    09:00 +13°C° 0.3 mm 2 mps 707 mmHg 83%
    10:00 +14°C° 0.3 mm 2 mps 707 mmHg 81%
    11:00 +15°C° 0.3 mm 2 mps 707 mmHg 76%
    12:00 +16°C° 0.3 mm 2 mps 707 mmHg 71%
    13:00 +17°C° 0.3 mm 2 mps 708 mmHg 66%
    14:00 +17°C° 0.5 mm 2 mps 708 mmHg 68%
    15:00 +17°C° 0.5 mm 2 mps 707 mmHg 69%
    16:00 +17°C° 0.5 mm 3 mps 707 mmHg 71%
    17:00 +16°C° 0.2 mm 2 mps 707 mmHg 75%
    18:00 +15°C° 0.2 mm 1 mps 708 mmHg 79%
    19:00 +14°C° 0.2 mm 1 mps 708 mmHg 82%
    20:00 +13°C° 0 mm 1 mps 708 mmHg 85%
    21:00 +11°C° 0 mm 1 mps 708 mmHg 87%
    22:00 +10°C° 0 mm 1 mps 708 mmHg 90%
    23:00 +10°C° 0 mm 1 mps 708 mmHg 90%

    26 June, Tuesday

    Time Temperature Precipitation Wind Pressure Humidity
    00:00 +9°C° 0 mm 1 mps 708 mmHg 90%
    01:00 +9°C° 0 mm 1 mps 708 mmHg 91%
    02:00 +9°C° 0 mm 1 mps 708 mmHg 91%
    03:00 +9°C° 0 mm 1 mps 708 mmHg 91%
    04:00 +9°C° 0 mm 1 mps 708 mmHg 91%
    05:00 +11°C° 0 mm 1 mps 708 mmHg 87%
    06:00 +13°C° 0 mm 1 mps 709 mmHg 83%
    07:00 +15°C° 0 mm 1 mps 709 mmHg 78%
    08:00 +16°C° 0.1 mm 2 mps 709 mmHg 71%
    09:00 +18°C° 0.1 mm 2 mps 710 mmHg 64%
    10:00 +19°C° 0.1 mm 2 mps 710 mmHg 56%
    11:00 +19°C° 0.5 mm 2 mps 710 mmHg 58%
    12:00 +19°C° 0.5 mm 3 mps 710 mmHg 60%
    13:00 +20°C° 0.5 mm 3 mps 709 mmHg 62%
    14:00 +19°C° 0.4 mm 3 mps 709 mmHg 63%
    15:00 +19°C° 0.4 mm 3 mps 709 mmHg 64%
    16:00 +19°C° 0.4 mm 3 mps 709 mmHg 65%
    17:00 +18°C° 0.1 mm 3 mps 709 mmHg 69%
    18:00 +17°C° 0.1 mm 2 mps 709 mmHg 73%
    19:00 +16°C° 0.1 mm 2 mps 709 mmHg 76%
    20:00 +14°C° 0 mm 1 mps 709 mmHg 79%
    21:00 +13°C° 0 mm 1 mps 709 mmHg 81%
    22:00 +11°C° 0 mm 1 mps 709 mmHg 84%
    23:00 +11°C° 0 mm 1 mps 709 mmHg 85%

    27 June, Wednesday

    Time Temperature Precipitation Wind Pressure Humidity
    00:00 +10°C° 0 mm 1 mps 709 mmHg 87%
    01:00 +10°C° 0 mm 1 mps 709 mmHg 88%
    02:00 +10°C° 0 mm 1 mps 709 mmHg 90%
    03:00 +10°C° 0 mm 1 mps 709 mmHg 91%
    04:00 +9°C° 0 mm 1 mps 708 mmHg 92%
    05:00 +11°C° 0 mm 1 mps 709 mmHg 87%
    06:00 +13°C° 0 mm 2 mps 709 mmHg 82%
    07:00 +15°C° 0 mm 2 mps 709 mmHg 77%
    08:00 +16°C° 0.1 mm 3 mps 709 mmHg 70%
    09:00 +18°C° 0.1 mm 3 mps 709 mmHg 63%
    10:00 +19°C° 0.1 mm 3 mps 709 mmHg 56%
    11:00 +20°C° 0.2 mm 4 mps 709 mmHg 56%
    12:00 +20°C° 0.2 mm 4 mps 709 mmHg 55%
    13:00 +21°C° 0.2 mm 4 mps 708 mmHg 54%
    14:00 +20°C° 0.3 mm 4 mps 708 mmHg 58%
    15:00 +20°C° 0.3 mm 4 mps 708 mmHg 62%
    16:00 +19°C° 0.3 mm 4 mps 707 mmHg 66%
    17:00 +18°C° 0.1 mm 3 mps 707 mmHg 71%
    18:00 +17°C° 0.1 mm 3 mps 707 mmHg 77%
    19:00 +16°C° 0.1 mm 2 mps 707 mmHg 83%
    20:00 +14°C° 0.1 mm 2 mps 707 mmHg 86%
    21:00 +13°C° 0.1 mm 2 mps 707 mmHg 90%
    22:00 +12°C° 0.1 mm 1 mps 706 mmHg 93%
    23:00 +12°C° 0.2 mm 1 mps 706 mmHg 94%

    28 June, Thursday

    Time Temperature Precipitation Wind Pressure Humidity
    00:00 +10°C° 0.2 mm 2 mps 706 mmHg 95%
    01:00 +10°C° 0.2 mm 2 mps 706 mmHg 96%
    02:00 +10°C° 0.1 mm 2 mps 706 mmHg 96%
    03:00 +10°C° 0.1 mm 2 mps 705 mmHg 97%
    04:00 +10°C° 0.1 mm 2 mps 705 mmHg 97%
    05:00 +12°C° 0.3 mm 2 mps 705 mmHg 96%
    06:00 +12°C° 0.3 mm 3 mps 706 mmHg 95%
    07:00 +12°C° 0.3 mm 3 mps 706 mmHg 94%
    08:00 +13°C° 0.3 mm 3 mps 706 mmHg 92%
    09:00 +13°C° 0.3 mm 3 mps 705 mmHg 90%
    10:00 +13°C° 0.3 mm 3 mps 705 mmHg 88%
    11:00 +13°C° 0.6 mm 3 mps 705 mmHg 89%
    12:00 +13°C° 0.6 mm 3 mps 705 mmHg 89%
    13:00 +14°C° 0.6 mm 3 mps 705 mmHg 89%
    14:00 +14°C° 0.4 mm 3 mps 704 mmHg 89%
    15:00 +15°C° 0.4 mm 2 mps 704 mmHg 89%
    16:00 +15°C° 0.4 mm 2 mps 704 mmHg 88%
    17:00 +15°C° 0.2 mm 2 mps 703 mmHg 90%
    18:00 +15°C° 0.2 mm 2 mps 703 mmHg 92%
    19:00 +15°C° 0.2 mm 1 mps 703 mmHg 93%
    20:00 +14°C° 0.9 mm 1 mps 702 mmHg 95%
    21:00 +14°C° 0.9 mm 1 mps 702 mmHg 96%
    22:00 +13°C° 0.9 mm 1 mps 702 mmHg 98%
    23:00 +13°C° 0.7 mm 1 mps 702 mmHg 97%
    Show more